Year,Month,Day,Hour,Minute,Value (Times are PST for temperature in C)
2010,01,23,00,00,2.20
2010,01,23,00,01,2.20
2010,01,23,00,02,2.20
2010,01,23,00,03,2.20
2010,01,23,00,04,2.20
2010,01,23,00,05,2.20
2010,01,23,00,06,2.20
2010,01,23,00,07,2.20
2010,01,23,00,08,2.20
2010,01,23,00,09,2.20
2010,01,23,00,10,2.20
2010,01,23,00,11,2.20
2010,01,23,00,12,2.20
2010,01,23,00,13,2.20
2010,01,23,00,14,2.20
2010,01,23,00,15,2.20
2010,01,23,00,16,2.20
2010,01,23,00,17,2.20
2010,01,23,00,18,2.20
2010,01,23,00,19,2.20
2010,01,23,00,20,2.20
2010,01,23,00,21,2.20
2010,01,23,00,22,2.20
2010,01,23,00,23,2.20
2010,01,23,00,24,2.20
2010,01,23,00,25,2.10
2010,01,23,00,26,2.10
2010,01,23,00,27,2.10
2010,01,23,00,28,2.10
2010,01,23,00,29,2.10
2010,01,23,00,30,2.10
2010,01,23,00,31,2.10
2010,01,23,00,32,2.10
2010,01,23,00,33,2.10
2010,01,23,00,34,2.10
2010,01,23,00,35,2.10
2010,01,23,00,36,2.10
2010,01,23,00,37,2.10
2010,01,23,00,38,2.10
2010,01,23,00,39,2.10
2010,01,23,00,40,2.20
2010,01,23,00,41,2.20
2010,01,23,00,42,2.20
2010,01,23,00,43,2.20
2010,01,23,00,44,2.20
2010,01,23,00,45,2.20
2010,01,23,00,46,2.20
2010,01,23,00,47,2.20
2010,01,23,00,48,2.20
2010,01,23,00,49,2.20
2010,01,23,00,50,2.20
2010,01,23,00,51,2.20
2010,01,23,00,52,2.20
2010,01,23,00,53,2.20
2010,01,23,00,54,2.20
2010,01,23,00,55,2.20
2010,01,23,00,56,2.20
2010,01,23,00,57,2.20
2010,01,23,00,58,2.20
2010,01,23,00,59,2.20
2010,01,23,01,00,2.20
2010,01,23,01,01,2.20
2010,01,23,01,02,2.20
2010,01,23,01,03,2.20
2010,01,23,01,04,2.20
2010,01,23,01,05,2.20
2010,01,23,01,06,2.20
2010,01,23,01,07,2.20
2010,01,23,01,08,2.20
2010,01,23,01,09,2.20
2010,01,23,01,10,2.20
2010,01,23,01,11,2.20
2010,01,23,01,12,2.20
2010,01,23,01,13,2.20
2010,01,23,01,14,2.20
2010,01,23,01,15,2.20
2010,01,23,01,16,2.20
2010,01,23,01,17,2.20
2010,01,23,01,18,2.20
2010,01,23,01,19,2.20
2010,01,23,01,20,2.20
2010,01,23,01,21,2.20
2010,01,23,01,22,2.20
2010,01,23,01,23,2.20
2010,01,23,01,24,2.20
2010,01,23,01,25,2.20
2010,01,23,01,26,2.20
2010,01,23,01,27,2.20
2010,01,23,01,28,2.20
2010,01,23,01,29,2.20
2010,01,23,01,30,2.20
2010,01,23,01,31,2.20
2010,01,23,01,32,2.20
2010,01,23,01,33,2.20
2010,01,23,01,34,2.20
2010,01,23,01,35,2.20
2010,01,23,01,36,2.20
2010,01,23,01,37,2.20
2010,01,23,01,38,2.20
2010,01,23,01,39,2.20
2010,01,23,01,40,2.20
2010,01,23,01,41,2.20
2010,01,23,01,42,2.20
2010,01,23,01,43,2.20
2010,01,23,01,44,2.20
2010,01,23,01,49,2.20
2010,01,23,01,50,2.20
2010,01,23,01,51,2.20
2010,01,23,01,52,2.20
2010,01,23,01,53,2.20
2010,01,23,01,54,2.20
2010,01,23,01,55,2.20
2010,01,23,01,56,2.20
2010,01,23,01,57,2.20
2010,01,23,01,58,2.20
2010,01,23,01,59,2.20
2010,01,23,02,00,2.20
2010,01,23,02,01,2.20
2010,01,23,02,02,2.20
2010,01,23,02,03,2.20
2010,01,23,02,04,2.20
2010,01,23,02,05,2.20
2010,01,23,02,06,2.20
2010,01,23,02,07,2.20
2010,01,23,02,08,2.20
2010,01,23,02,09,2.20
2010,01,23,02,10,2.20
2010,01,23,02,11,2.20
2010,01,23,02,12,2.20
2010,01,23,02,13,2.20
2010,01,23,02,14,2.20
2010,01,23,02,15,2.20
2010,01,23,02,16,2.20
2010,01,23,02,17,2.20
2010,01,23,02,18,2.20
2010,01,23,02,19,2.20
2010,01,23,02,20,2.10
2010,01,23,02,21,2.10
2010,01,23,02,22,2.10
2010,01,23,02,23,2.10
2010,01,23,02,24,2.10
2010,01,23,02,25,2.20
2010,01,23,02,26,2.20
2010,01,23,02,27,2.20
2010,01,23,02,28,2.10
2010,01,23,02,29,2.20
2010,01,23,02,30,2.10
2010,01,23,02,31,2.10
2010,01,23,02,32,2.10
2010,01,23,02,33,2.10
2010,01,23,02,34,2.10
2010,01,23,02,35,2.10
2010,01,23,02,36,2.10
2010,01,23,02,37,2.10
2010,01,23,02,38,2.10
2010,01,23,02,39,2.10
2010,01,23,02,40,2.10
2010,01,23,02,41,2.10
2010,01,23,02,42,2.10
2010,01,23,02,43,2.10
2010,01,23,02,44,2.10
2010,01,23,02,45,2.10
2010,01,23,02,46,2.10
2010,01,23,02,47,2.10
2010,01,23,02,48,2.10
2010,01,23,02,49,2.10
2010,01,23,02,50,2.10
2010,01,23,02,51,2.10
2010,01,23,02,52,2.10
2010,01,23,02,53,2.10
2010,01,23,02,54,2.10
2010,01,23,02,55,2.10
2010,01,23,02,56,2.10
2010,01,23,02,57,2.10
2010,01,23,02,58,2.10
2010,01,23,02,59,2.10
2010,01,23,03,00,2.10
2010,01,23,03,01,2.10
2010,01,23,03,02,2.10
2010,01,23,03,03,2.10
2010,01,23,03,04,2.10
2010,01,23,03,05,2.10
2010,01,23,03,06,2.10
2010,01,23,03,07,2.10
2010,01,23,03,08,2.10
2010,01,23,03,09,2.10
2010,01,23,03,10,2.10
2010,01,23,03,11,2.10
2010,01,23,03,12,2.10
2010,01,23,03,13,2.10
2010,01,23,03,14,2.10
2010,01,23,03,15,2.00
2010,01,23,03,16,2.00
2010,01,23,03,17,2.00
2010,01,23,03,18,2.00
2010,01,23,03,19,2.00
2010,01,23,03,20,2.00
2010,01,23,03,21,2.00
2010,01,23,03,22,2.00
2010,01,23,03,23,2.00
2010,01,23,03,24,2.00
2010,01,23,03,25,2.00
2010,01,23,03,26,2.00
2010,01,23,03,27,2.00
2010,01,23,03,28,2.00
2010,01,23,03,29,2.00
2010,01,23,03,30,2.00
2010,01,23,03,31,2.00
2010,01,23,03,32,2.00
2010,01,23,03,33,2.00
2010,01,23,03,34,2.00
2010,01,23,03,35,2.00
2010,01,23,03,36,2.00
2010,01,23,03,37,2.00
2010,01,23,03,38,2.00
2010,01,23,03,39,2.00
2010,01,23,03,40,2.00
2010,01,23,03,41,2.00
2010,01,23,03,42,2.00
2010,01,23,03,43,2.00
2010,01,23,03,44,2.00
2010,01,23,03,45,2.00
2010,01,23,03,46,2.00
2010,01,23,03,47,2.10
2010,01,23,03,48,2.10
2010,01,23,03,49,2.10
2010,01,23,03,50,2.10
2010,01,23,03,51,2.10
2010,01,23,03,52,2.10
2010,01,23,03,53,2.10
2010,01,23,03,54,2.10
2010,01,23,03,55,2.10
2010,01,23,03,56,2.10
2010,01,23,03,57,2.20
2010,01,23,03,58,2.20
2010,01,23,03,59,2.20
2010,01,23,04,00,2.20
2010,01,23,04,01,2.20
2010,01,23,04,02,2.20
2010,01,23,04,03,2.30
2010,01,23,04,04,2.30
2010,01,23,04,05,2.30
2010,01,23,04,06,2.30
2010,01,23,04,07,2.40
2010,01,23,04,08,2.40
2010,01,23,04,09,2.40
2010,01,23,04,10,2.40
2010,01,23,04,11,2.40
2010,01,23,04,12,2.40
2010,01,23,04,13,2.40
2010,01,23,04,14,2.40
2010,01,23,04,15,2.50
2010,01,23,04,16,2.50
2010,01,23,04,17,2.60
2010,01,23,04,18,2.60
2010,01,23,04,19,2.60
2010,01,23,04,20,2.70
2010,01,23,04,21,2.70
2010,01,23,04,22,2.70
2010,01,23,04,23,2.70
2010,01,23,04,24,2.70
2010,01,23,04,25,2.70
2010,01,23,04,26,2.70
2010,01,23,04,27,2.80
2010,01,23,04,28,2.80
2010,01,23,04,29,2.80
2010,01,23,04,30,2.80
2010,01,23,04,31,2.80
2010,01,23,04,32,2.80
2010,01,23,04,33,2.80
2010,01,23,04,34,2.80
2010,01,23,04,35,2.80
2010,01,23,04,36,2.80
2010,01,23,04,37,2.80
2010,01,23,04,38,2.80
2010,01,23,04,39,2.80
2010,01,23,04,40,2.80
2010,01,23,04,41,2.80
2010,01,23,04,42,2.80
2010,01,23,04,43,2.90
2010,01,23,04,44,2.90
2010,01,23,04,45,2.90
2010,01,23,04,46,2.90
2010,01,23,04,47,2.90
2010,01,23,04,48,2.90
2010,01,23,04,49,2.90
2010,01,23,04,50,2.90
2010,01,23,04,51,2.80
2010,01,23,04,52,2.80
2010,01,23,04,53,2.80
2010,01,23,04,54,2.80
2010,01,23,04,55,2.80
2010,01,23,04,56,2.80
2010,01,23,04,57,2.80
2010,01,23,04,58,2.80
2010,01,23,04,59,2.80
2010,01,23,05,00,2.80
2010,01,23,05,01,2.80
2010,01,23,05,02,2.80
2010,01,23,05,03,2.80
2010,01,23,05,04,2.80
2010,01,23,05,05,2.80
2010,01,23,05,06,2.80
2010,01,23,05,07,2.90
2010,01,23,05,08,2.90
2010,01,23,05,09,2.90
2010,01,23,05,10,2.90
2010,01,23,05,11,2.90
2010,01,23,05,12,2.90
2010,01,23,05,13,3.00
2010,01,23,05,14,3.00
2010,01,23,05,15,3.00
2010,01,23,05,16,3.00
2010,01,23,05,17,3.10
2010,01,23,05,18,3.10
2010,01,23,05,19,3.10
2010,01,23,05,20,3.10
2010,01,23,05,21,3.10
2010,01,23,05,22,3.20
2010,01,23,05,23,3.20
2010,01,23,05,24,3.20
2010,01,23,05,25,3.20
2010,01,23,05,26,3.20
2010,01,23,05,27,3.20
2010,01,23,05,28,3.20
2010,01,23,05,29,3.30
2010,01,23,05,30,3.30
2010,01,23,05,31,3.30
2010,01,23,05,32,3.30
2010,01,23,05,33,3.30
2010,01,23,05,34,3.40
2010,01,23,05,35,3.40
2010,01,23,05,36,3.40
2010,01,23,05,37,3.40
2010,01,23,05,38,3.40
2010,01,23,05,39,3.40
2010,01,23,05,40,3.50
2010,01,23,05,41,3.50
2010,01,23,05,42,3.50
2010,01,23,05,43,3.50
2010,01,23,05,44,3.60
2010,01,23,05,45,3.60
2010,01,23,05,46,3.60
2010,01,23,05,47,3.60
2010,01,23,05,48,3.50
2010,01,23,05,49,3.50
2010,01,23,05,50,3.60
2010,01,23,05,51,3.60
2010,01,23,05,52,3.60
2010,01,23,05,53,3.60
2010,01,23,05,54,3.60
2010,01,23,05,55,3.60
2010,01,23,05,56,3.60
2010,01,23,05,57,3.60
2010,01,23,05,58,3.60
2010,01,23,05,59,3.60
2010,01,23,06,00,3.60
2010,01,23,06,01,3.60
2010,01,23,06,02,3.60
2010,01,23,06,03,3.60
2010,01,23,06,04,3.60
2010,01,23,06,05,3.60
2010,01,23,06,06,3.70
2010,01,23,06,07,3.70
2010,01,23,06,08,3.70
2010,01,23,06,09,3.70
2010,01,23,06,10,3.70
2010,01,23,06,11,3.70
2010,01,23,06,12,3.70
2010,01,23,06,13,3.70
2010,01,23,06,14,3.80
2010,01,23,06,15,3.80
2010,01,23,06,16,3.80
2010,01,23,06,17,3.80
2010,01,23,06,18,3.90
2010,01,23,06,19,3.90
2010,01,23,06,20,4.00
2010,01,23,06,21,4.00
2010,01,23,06,22,4.00
2010,01,23,06,23,4.10
2010,01,23,06,24,4.10
2010,01,23,06,25,4.10
2010,01,23,06,26,4.10
2010,01,23,06,27,4.10
2010,01,23,06,28,4.10
2010,01,23,06,29,4.10
2010,01,23,06,30,4.20
2010,01,23,06,31,4.20
2010,01,23,06,32,4.20
2010,01,23,06,33,4.30
2010,01,23,06,34,4.30
2010,01,23,06,35,4.30
2010,01,23,06,36,4.30
2010,01,23,06,37,4.30
2010,01,23,06,38,4.30
2010,01,23,06,39,4.30
2010,01,23,06,40,4.30
2010,01,23,06,41,4.30
2010,01,23,06,42,4.30
2010,01,23,06,43,4.30
2010,01,23,06,44,4.30
2010,01,23,06,45,4.30
2010,01,23,06,46,4.30
2010,01,23,06,47,4.30
2010,01,23,06,48,4.30
2010,01,23,06,49,4.40
2010,01,23,06,50,4.40
2010,01,23,06,51,4.40
2010,01,23,06,52,4.40
2010,01,23,06,53,4.40
2010,01,23,06,54,4.40
2010,01,23,06,55,4.40
2010,01,23,06,56,4.40
2010,01,23,06,57,4.40
2010,01,23,06,58,4.40
2010,01,23,06,59,4.40
2010,01,23,07,00,4.40
2010,01,23,07,01,4.40
2010,01,23,07,02,4.40
2010,01,23,07,03,4.40
2010,01,23,07,04,4.40
2010,01,23,07,05,4.40
2010,01,23,07,06,4.40
2010,01,23,07,07,4.40
2010,01,23,07,08,4.40
2010,01,23,07,09,4.40
2010,01,23,07,10,4.50
2010,01,23,07,11,4.60
2010,01,23,07,12,4.60
2010,01,23,07,13,4.70
2010,01,23,07,14,4.70
2010,01,23,07,15,4.80
2010,01,23,07,16,4.80
2010,01,23,07,17,4.80
2010,01,23,07,18,4.80
2010,01,23,07,19,4.90
2010,01,23,07,20,4.90
2010,01,23,07,21,4.90
2010,01,23,07,22,4.90
2010,01,23,07,23,4.90
2010,01,23,07,24,4.90
2010,01,23,07,25,5.00
2010,01,23,07,26,5.00
2010,01,23,07,27,5.00
2010,01,23,07,28,5.00
2010,01,23,07,29,5.00
2010,01,23,07,30,5.10
2010,01,23,07,31,5.10
2010,01,23,07,32,5.00
2010,01,23,07,33,5.10
2010,01,23,07,34,5.10
2010,01,23,07,35,5.10
2010,01,23,07,36,5.10
2010,01,23,07,37,5.10
2010,01,23,07,38,5.10
2010,01,23,07,39,5.10
2010,01,23,07,40,5.10
2010,01,23,07,41,5.10
2010,01,23,07,42,5.10
2010,01,23,07,43,5.10
2010,01,23,07,44,5.10
2010,01,23,07,45,5.10
2010,01,23,07,46,5.00
2010,01,23,07,47,5.00
2010,01,23,07,48,5.00
2010,01,23,07,49,5.00
2010,01,23,07,50,5.00
2010,01,23,07,51,5.00
2010,01,23,07,52,5.00
2010,01,23,07,53,5.00
2010,01,23,07,54,5.00
2010,01,23,07,55,5.00
2010,01,23,07,56,5.00
2010,01,23,07,57,5.10
2010,01,23,07,58,5.10
2010,01,23,07,59,5.10
2010,01,23,08,00,5.10
2010,01,23,08,01,5.10
2010,01,23,08,02,5.10
2010,01,23,08,03,5.10
2010,01,23,08,04,5.10
2010,01,23,08,05,5.10
2010,01,23,08,06,5.10
2010,01,23,08,07,5.10
2010,01,23,08,08,5.10
2010,01,23,08,09,5.20
2010,01,23,08,10,5.20
2010,01,23,08,11,5.20
2010,01,23,08,12,5.20
2010,01,23,08,13,5.20
2010,01,23,08,14,5.20
2010,01,23,08,15,5.20
2010,01,23,08,16,5.20
2010,01,23,08,17,5.20
2010,01,23,08,18,5.20
2010,01,23,08,19,5.20
2010,01,23,08,20,5.20
2010,01,23,08,21,5.20
2010,01,23,08,22,5.10
2010,01,23,08,23,5.10
2010,01,23,08,24,5.10
2010,01,23,08,25,5.10
2010,01,23,08,26,5.10
2010,01,23,08,27,5.10
2010,01,23,08,28,5.00
2010,01,23,08,29,5.00
2010,01,23,08,30,5.00
2010,01,23,08,31,4.90
2010,01,23,08,32,4.90
2010,01,23,08,33,4.90
2010,01,23,08,34,4.90
2010,01,23,08,35,4.90
2010,01,23,08,36,4.90
2010,01,23,08,37,4.90
2010,01,23,08,38,4.80
2010,01,23,08,39,4.80
2010,01,23,08,40,4.90
2010,01,23,08,41,4.90
2010,01,23,08,42,4.90
2010,01,23,08,43,4.90
2010,01,23,08,44,4.90
2010,01,23,08,45,4.90
2010,01,23,08,46,4.90
2010,01,23,08,47,4.90
2010,01,23,08,48,4.90
2010,01,23,08,49,4.90
2010,01,23,08,50,4.90
2010,01,23,08,51,4.90
2010,01,23,08,52,4.90
2010,01,23,08,53,4.90
2010,01,23,08,54,4.90
2010,01,23,08,55,4.90
2010,01,23,08,56,4.90
2010,01,23,08,57,4.90
2010,01,23,08,58,5.00
2010,01,23,08,59,5.00
2010,01,23,09,00,5.00
2010,01,23,09,01,5.10
2010,01,23,09,02,5.10
2010,01,23,09,03,5.10
2010,01,23,09,04,5.10
2010,01,23,09,05,5.10
2010,01,23,09,06,5.20
2010,01,23,09,07,5.20
2010,01,23,09,08,5.20
2010,01,23,09,09,5.20
2010,01,23,09,10,5.20
2010,01,23,09,11,5.30
2010,01,23,09,12,5.30
2010,01,23,09,13,5.30
2010,01,23,09,14,5.40
2010,01,23,09,15,5.40
2010,01,23,09,16,5.40
2010,01,23,09,17,5.40
2010,01,23,09,18,5.40
2010,01,23,09,19,5.50
2010,01,23,09,20,5.50
2010,01,23,09,21,5.60
2010,01,23,09,22,5.70
2010,01,23,09,23,5.70
2010,01,23,09,24,5.70
2010,01,23,09,25,5.70
2010,01,23,09,26,5.70
2010,01,23,09,27,5.80
2010,01,23,09,28,5.80
2010,01,23,09,29,5.80
2010,01,23,09,30,5.80
2010,01,23,09,31,5.90
2010,01,23,09,32,5.90
2010,01,23,09,33,5.90
2010,01,23,09,34,5.90
2010,01,23,09,35,6.00
2010,01,23,09,36,6.00
2010,01,23,09,37,6.00
2010,01,23,09,38,6.10
2010,01,23,09,39,6.10
2010,01,23,09,40,6.10
2010,01,23,09,41,6.20
2010,01,23,09,42,6.20
2010,01,23,09,43,6.20
2010,01,23,09,44,6.20
2010,01,23,09,45,6.20
2010,01,23,09,46,6.30
2010,01,23,09,47,6.30
2010,01,23,09,48,6.30
2010,01,23,09,49,6.30
2010,01,23,09,50,6.30
2010,01,23,09,51,6.40
2010,01,23,09,52,6.40
2010,01,23,09,53,6.40
2010,01,23,09,54,6.40
2010,01,23,09,55,6.40
2010,01,23,09,56,6.40
2010,01,23,09,57,6.50
2010,01,23,09,58,6.50
2010,01,23,09,59,6.50
2010,01,23,10,00,6.50
2010,01,23,10,01,6.50
2010,01,23,10,02,6.50
2010,01,23,10,03,6.50
2010,01,23,10,04,6.50
2010,01,23,10,05,6.50
2010,01,23,10,06,6.50
2010,01,23,10,07,6.50
2010,01,23,10,08,6.40
2010,01,23,10,09,6.40
2010,01,23,10,10,6.50
2010,01,23,10,11,6.50
2010,01,23,10,12,6.50
2010,01,23,10,13,6.50
2010,01,23,10,14,6.50
2010,01,23,10,15,6.50
2010,01,23,10,16,6.50
2010,01,23,10,17,6.60
2010,01,23,10,18,6.60
2010,01,23,10,19,6.60
2010,01,23,10,20,6.60
2010,01,23,10,21,6.60
2010,01,23,10,22,6.60
2010,01,23,10,23,6.60
2010,01,23,10,24,6.60
2010,01,23,10,25,6.60
2010,01,23,10,26,6.60
2010,01,23,10,27,6.60
2010,01,23,10,28,6.60
2010,01,23,10,29,6.60
2010,01,23,10,30,6.60
2010,01,23,10,31,6.60
2010,01,23,10,32,6.70
2010,01,23,10,33,6.70
2010,01,23,10,34,6.70
2010,01,23,10,35,6.70
2010,01,23,10,36,6.70
2010,01,23,10,37,6.70
2010,01,23,10,38,6.70
2010,01,23,10,39,6.70
2010,01,23,10,40,6.70
2010,01,23,10,41,6.80
2010,01,23,10,42,6.80
2010,01,23,10,43,6.80
2010,01,23,10,44,6.80
2010,01,23,10,45,6.80
2010,01,23,10,46,6.80
2010,01,23,10,47,6.90
2010,01,23,10,48,6.90
2010,01,23,10,49,6.90
2010,01,23,10,50,6.90
2010,01,23,10,51,6.90
2010,01,23,10,52,6.90
2010,01,23,10,53,6.90
2010,01,23,10,54,6.90
2010,01,23,10,55,7.00
2010,01,23,10,56,7.00
2010,01,23,10,57,7.00
2010,01,23,10,58,7.10
2010,01,23,10,59,7.10
2010,01,23,11,00,7.10
2010,01,23,11,01,7.20
2010,01,23,11,02,7.20
2010,01,23,11,03,7.20
2010,01,23,11,04,7.30
2010,01,23,11,05,7.30
2010,01,23,11,06,7.40
2010,01,23,11,07,7.40
2010,01,23,11,08,7.40
2010,01,23,11,09,7.50
2010,01,23,11,10,7.50
2010,01,23,11,11,7.60
2010,01,23,11,12,7.60
2010,01,23,11,13,7.70
2010,01,23,11,14,7.70
2010,01,23,11,15,7.80
2010,01,23,11,16,7.80
2010,01,23,11,17,7.80
2010,01,23,11,18,7.90
2010,01,23,11,19,7.90
2010,01,23,11,20,7.90
2010,01,23,11,21,8.00
2010,01,23,11,22,8.00
2010,01,23,11,23,8.00
2010,01,23,11,24,8.00
2010,01,23,11,25,8.00
2010,01,23,11,26,8.10
2010,01,23,11,27,8.10
2010,01,23,11,28,8.10
2010,01,23,11,29,8.20
2010,01,23,11,30,8.20
2010,01,23,11,31,8.20
2010,01,23,11,32,8.30
2010,01,23,11,33,8.30
2010,01,23,11,34,8.40
2010,01,23,11,35,8.40
2010,01,23,11,36,8.50
2010,01,23,11,37,8.50
2010,01,23,11,38,8.60
2010,01,23,11,39,8.60
2010,01,23,11,40,8.60
2010,01,23,11,41,8.60
2010,01,23,11,42,8.70
2010,01,23,11,43,8.70
2010,01,23,11,44,8.70
2010,01,23,11,45,8.80
2010,01,23,11,46,8.80
2010,01,23,11,47,8.80
2010,01,23,11,48,8.90
2010,01,23,11,49,8.90
2010,01,23,11,50,8.90
2010,01,23,11,51,8.90
2010,01,23,11,52,8.90
2010,01,23,11,53,8.90
2010,01,23,11,54,8.90
2010,01,23,11,55,8.90
2010,01,23,11,56,9.00
2010,01,23,11,57,9.00
2010,01,23,11,58,8.90
2010,01,23,11,59,8.90
2010,01,23,12,00,8.90
2010,01,23,12,01,8.90
2010,01,23,12,02,8.80
2010,01,23,12,03,8.70
2010,01,23,12,04,8.70
2010,01,23,12,05,8.60
2010,01,23,12,06,8.60
2010,01,23,12,07,8.50
2010,01,23,12,08,8.40
2010,01,23,12,09,8.40
2010,01,23,12,10,8.30
2010,01,23,12,11,8.30
2010,01,23,12,12,8.30
2010,01,23,12,13,8.30
2010,01,23,12,14,8.20
2010,01,23,12,15,8.20
2010,01,23,12,16,8.20
2010,01,23,12,17,8.20
2010,01,23,12,18,8.20
2010,01,23,12,19,8.20
2010,01,23,12,20,8.10
2010,01,23,12,21,8.10
2010,01,23,12,22,8.10
2010,01,23,12,23,8.10
2010,01,23,12,24,8.10
2010,01,23,12,25,8.10
2010,01,23,12,26,8.10
2010,01,23,12,27,8.10
2010,01,23,12,28,8.10
2010,01,23,12,29,8.10
2010,01,23,12,30,8.10
2010,01,23,12,31,8.10
2010,01,23,12,32,8.10
2010,01,23,12,33,8.10
2010,01,23,12,34,8.10
2010,01,23,12,35,8.10
2010,01,23,12,36,8.10
2010,01,23,12,37,8.00
2010,01,23,12,38,8.00
2010,01,23,12,39,8.00
2010,01,23,12,40,8.00
2010,01,23,12,41,8.00
2010,01,23,12,42,8.10
2010,01,23,12,43,8.10
2010,01,23,12,44,8.10
2010,01,23,12,45,8.10
2010,01,23,12,46,8.10
2010,01,23,12,47,8.10
2010,01,23,12,48,8.20
2010,01,23,12,49,8.20
2010,01,23,12,50,8.20
2010,01,23,12,51,8.30
2010,01,23,12,52,8.40
2010,01,23,12,53,8.40
2010,01,23,12,54,8.50
2010,01,23,12,55,8.60
2010,01,23,12,56,8.60
2010,01,23,12,57,8.70
2010,01,23,12,58,8.80
2010,01,23,12,59,8.90
2010,01,23,13,00,8.90
2010,01,23,13,01,9.00
2010,01,23,13,02,9.00
2010,01,23,13,03,9.10
2010,01,23,13,04,9.20
2010,01,23,13,05,9.20
2010,01,23,13,06,9.30
2010,01,23,13,07,9.30
2010,01,23,13,08,9.40
2010,01,23,13,09,9.50
2010,01,23,13,10,9.60
2010,01,23,13,11,9.60
2010,01,23,13,12,9.70
2010,01,23,13,13,9.80
2010,01,23,13,14,9.80
2010,01,23,13,15,9.90
2010,01,23,13,16,9.90
2010,01,23,13,17,10.00
2010,01,23,13,18,10.00
2010,01,23,13,19,10.10
2010,01,23,13,20,10.10
2010,01,23,13,21,10.10
2010,01,23,13,22,10.10
2010,01,23,13,23,10.20
2010,01,23,13,24,10.20
2010,01,23,13,25,10.20
2010,01,23,13,26,10.20
2010,01,23,13,27,10.20
2010,01,23,13,28,10.20
2010,01,23,13,29,10.20
2010,01,23,13,30,10.20
2010,01,23,13,31,10.20
2010,01,23,13,32,10.20
2010,01,23,13,33,10.20
2010,01,23,13,34,10.10
2010,01,23,13,35,10.10
2010,01,23,13,36,10.10
2010,01,23,13,37,10.10
2010,01,23,13,38,10.10
2010,01,23,13,39,10.00
2010,01,23,13,40,10.00
2010,01,23,13,41,10.00
2010,01,23,13,42,10.10
2010,01,23,13,43,10.10
2010,01,23,13,44,10.10
2010,01,23,13,45,10.10
2010,01,23,13,46,10.10
2010,01,23,13,47,10.10
2010,01,23,13,48,10.10
2010,01,23,13,49,10.10
2010,01,23,13,50,10.10
2010,01,23,13,51,10.10
2010,01,23,13,52,10.10
2010,01,23,13,53,10.10
2010,01,23,13,54,10.10
2010,01,23,13,55,10.10
2010,01,23,13,56,10.10
2010,01,23,13,57,10.10
2010,01,23,13,58,10.10
2010,01,23,13,59,10.10
2010,01,23,14,00,10.10
2010,01,23,14,01,10.10
2010,01,23,14,02,10.10
2010,01,23,14,03,10.10
2010,01,23,14,04,10.10
2010,01,23,14,05,10.20
2010,01,23,14,06,10.20
2010,01,23,14,07,10.30
2010,01,23,14,08,10.30
2010,01,23,14,09,10.30
2010,01,23,14,10,10.40
2010,01,23,14,11,10.40
2010,01,23,14,12,10.30
2010,01,23,14,13,10.30
2010,01,23,14,14,10.20
2010,01,23,14,15,10.20
2010,01,23,14,16,10.20
2010,01,23,14,17,10.20
2010,01,23,14,18,10.10
2010,01,23,14,19,10.10
2010,01,23,14,20,10.10
2010,01,23,14,21,10.10
2010,01,23,14,22,10.10
2010,01,23,14,23,10.00
2010,01,23,14,24,10.00
2010,01,23,14,25,10.00
2010,01,23,14,26,10.00
2010,01,23,14,27,10.00
2010,01,23,14,28,10.10
2010,01,23,14,29,10.10
2010,01,23,14,30,10.10
2010,01,23,14,31,10.10
2010,01,23,14,32,10.20
2010,01,23,14,33,10.20
2010,01,23,14,34,10.20
2010,01,23,14,35,10.20
2010,01,23,14,36,10.20
2010,01,23,14,37,10.20
2010,01,23,14,38,10.20
2010,01,23,14,39,10.30
2010,01,23,14,40,10.30
2010,01,23,14,41,10.30
2010,01,23,14,42,10.30
2010,01,23,14,43,10.30
2010,01,23,14,44,10.30
2010,01,23,14,45,10.30
2010,01,23,14,46,10.40
2010,01,23,14,47,10.40
2010,01,23,14,48,10.40
2010,01,23,14,49,10.40
2010,01,23,14,50,10.40
2010,01,23,14,51,10.40
2010,01,23,14,52,10.50
2010,01,23,14,53,10.50
2010,01,23,14,54,10.50
2010,01,23,14,55,10.50
2010,01,23,14,56,10.50
2010,01,23,14,57,10.50
2010,01,23,14,58,10.50
2010,01,23,14,59,10.50
2010,01,23,15,00,10.50
2010,01,23,15,01,10.40
2010,01,23,15,02,10.40
2010,01,23,15,03,10.40
2010,01,23,15,04,10.40
2010,01,23,15,05,10.40
2010,01,23,15,06,10.40
2010,01,23,15,07,10.40
2010,01,23,15,08,10.40
2010,01,23,15,09,10.40
2010,01,23,15,10,10.50
2010,01,23,15,11,10.50
2010,01,23,15,12,10.50
2010,01,23,15,13,10.50
2010,01,23,15,14,10.60
2010,01,23,15,15,10.60
2010,01,23,15,16,10.60
2010,01,23,15,17,10.50
2010,01,23,15,18,10.50
2010,01,23,15,19,10.40
2010,01,23,15,20,10.40
2010,01,23,15,21,10.40
2010,01,23,15,22,10.40
2010,01,23,15,23,10.30
2010,01,23,15,24,10.30
2010,01,23,15,25,10.30
2010,01,23,15,26,10.20
2010,01,23,15,27,10.20
2010,01,23,15,28,10.20
2010,01,23,15,29,10.20
2010,01,23,15,30,10.10
2010,01,23,15,31,10.00
2010,01,23,15,32,10.00
2010,01,23,15,33,9.90
2010,01,23,15,34,9.90
2010,01,23,15,35,9.90
2010,01,23,15,36,9.80
2010,01,23,15,37,9.70
2010,01,23,15,38,9.70
2010,01,23,15,39,9.60
2010,01,23,15,40,9.60
2010,01,23,15,41,9.50
2010,01,23,15,42,9.50
2010,01,23,15,43,9.40
2010,01,23,15,44,9.40
2010,01,23,15,45,9.30
2010,01,23,15,46,9.30
2010,01,23,15,47,9.20
2010,01,23,15,48,9.20
2010,01,23,15,49,9.10
2010,01,23,15,50,9.10
2010,01,23,15,51,9.00
2010,01,23,15,52,8.90
2010,01,23,15,53,8.80
2010,01,23,15,54,8.80
2010,01,23,15,55,8.70
2010,01,23,15,56,8.70
2010,01,23,15,57,8.60
2010,01,23,15,58,8.60
2010,01,23,15,59,8.60
2010,01,23,16,00,8.50
2010,01,23,16,01,8.40
2010,01,23,16,02,8.40
2010,01,23,16,03,8.30
2010,01,23,16,04,8.30
2010,01,23,16,05,8.30
2010,01,23,16,06,8.30
2010,01,23,16,07,8.20
2010,01,23,16,08,8.20
2010,01,23,16,09,8.20
2010,01,23,16,10,8.10
2010,01,23,16,11,8.10
2010,01,23,16,12,8.00
2010,01,23,16,13,8.00
2010,01,23,16,14,7.90
2010,01,23,16,15,7.80
2010,01,23,16,16,7.80
2010,01,23,16,17,7.70
2010,01,23,16,18,7.70
2010,01,23,16,19,7.70
2010,01,23,16,20,7.60
2010,01,23,16,21,7.60
2010,01,23,16,22,7.60
2010,01,23,16,23,7.50
2010,01,23,16,24,7.40
2010,01,23,16,25,7.40
2010,01,23,16,26,7.40
2010,01,23,16,27,7.30
2010,01,23,16,28,7.30
2010,01,23,16,29,7.20
2010,01,23,16,30,7.20
2010,01,23,16,31,7.20
2010,01,23,16,32,7.20
2010,01,23,16,33,7.10
2010,01,23,16,34,7.10
2010,01,23,16,35,7.00
2010,01,23,16,36,7.00
2010,01,23,16,37,6.90
2010,01,23,16,38,6.90
2010,01,23,16,39,6.90
2010,01,23,16,40,6.80
2010,01,23,16,41,6.80
2010,01,23,16,42,6.80
2010,01,23,16,43,6.70
2010,01,23,16,44,6.70
2010,01,23,16,45,6.70
2010,01,23,16,46,6.60
2010,01,23,16,47,6.60
2010,01,23,16,48,6.60
2010,01,23,16,49,6.50
2010,01,23,16,50,6.50
2010,01,23,16,51,6.50
2010,01,23,16,52,6.40
2010,01,23,16,53,6.40
2010,01,23,16,54,6.40
2010,01,23,16,55,6.30
2010,01,23,16,56,6.30
2010,01,23,16,57,6.30
2010,01,23,16,58,6.30
2010,01,23,16,59,6.20
2010,01,23,17,00,6.20
2010,01,23,17,01,6.20
2010,01,23,17,02,6.20
2010,01,23,17,03,6.10
2010,01,23,17,04,6.10
2010,01,23,17,05,6.10
2010,01,23,17,06,6.10
2010,01,23,17,07,6.00
2010,01,23,17,08,6.00
2010,01,23,17,09,6.00
2010,01,23,17,10,6.00
2010,01,23,17,11,5.90
2010,01,23,17,12,5.90
2010,01,23,17,13,5.90
2010,01,23,17,14,5.90
2010,01,23,17,15,5.90
2010,01,23,17,16,5.90
2010,01,23,17,17,5.80
2010,01,23,17,18,5.80
2010,01,23,17,19,5.80
2010,01,23,17,20,5.80
2010,01,23,17,21,5.80
2010,01,23,17,22,5.80
2010,01,23,17,23,5.80
2010,01,23,17,24,5.80
2010,01,23,17,25,5.70
2010,01,23,17,26,5.70
2010,01,23,17,27,5.70
2010,01,23,17,28,5.70
2010,01,23,17,29,5.70
2010,01,23,17,30,5.70
2010,01,23,17,31,5.60
2010,01,23,17,32,5.60
2010,01,23,17,33,5.60
2010,01,23,17,34,5.60
2010,01,23,17,35,5.60
2010,01,23,17,36,5.60
2010,01,23,17,37,5.50
2010,01,23,17,38,5.50
2010,01,23,17,39,5.50
2010,01,23,17,40,5.50
2010,01,23,17,41,5.50
2010,01,23,17,42,5.40
2010,01,23,17,43,5.40
2010,01,23,17,44,5.40
2010,01,23,17,45,5.40
2010,01,23,17,46,5.40
2010,01,23,17,47,5.40
2010,01,23,17,48,5.40
2010,01,23,17,49,5.40
2010,01,23,17,50,5.40
2010,01,23,17,51,5.40
2010,01,23,17,52,5.40
2010,01,23,17,53,5.40
2010,01,23,17,54,5.40
2010,01,23,17,55,5.40
2010,01,23,17,56,5.40
2010,01,23,17,57,5.40
2010,01,23,17,58,5.40
2010,01,23,17,59,5.40
2010,01,23,18,00,5.40
2010,01,23,18,01,5.40
2010,01,23,18,02,5.40
2010,01,23,18,03,5.40
2010,01,23,18,04,5.40